Flag for Canada Weather past 2 weeks in Medicine Hat, Alberta, Canada

Now
73 °F

Partly sunny.


Feels Like: 76 °F
Forecast: 45 / 72 °F
Wind: 12 mph from Southwest

Location: Medicine Hat

Current Time: Sep 1, 2014 at 3:39:47 PM

Latest Report: Sep 1, 2014 at 3:00 PM


Visibility: 30 mi

Pressure: 29.78 "Hg

Humidity: 29%

Dew point: 39 °F

Location of Medicine HatLocation

Historic Weather in Medicine Hat — Graph

°F

Medicine Hat temperature yesterday

Maximum temperature yesterday: 72 °F (at 2:00 PM)
Minimum temperature yesterday: 46 °F (at 6:00 AM)
Average temperature yesterday: 58 °F

Past Weeks' High & Low Weather Summary

 TemperatureHumidityPressure
High88 °F (Aug 18, 5:00 PM)100% (Aug 18, 6:00 AM)30.32 "Hg (Aug 18, 6:00 AM)
Low41 °F (Aug 25, 3:00 AM)24% (Aug 27, 4:00 PM)29.56 "Hg (Aug 19, 8:00 PM)
Average62 °F71%29.94 "Hg
* Reported Aug 17 2:00 PM — Sep 1 2:00 PM, Medicine Hat, Weather by CustomWeather, © 2014

Note: Actual official high and low records may vary slightly from our data, if they occured in-between our weather recording intervals... More about our weather records

Advertising

Medicine Hat weather history for previous 24 hours

 ConditionsComfort  
Time TempWeatherWind HumidityBarometerVisibility
2:00 PM
Sep 1
72 °FScattered clouds.9 mph33%29.80 "Hg30 mi
1:00 PM70 °FScattered clouds.9 mph43%29.82 "Hg30 mi
12:00 PM66 °FScattered clouds.10 mph52%29.85 "Hg30 mi
11:00 AM63 °FPassing clouds.10 mph64%29.86 "Hg30 mi
10:00 AM59 °FScattered clouds.10 mph72%29.88 "Hg30 mi
9:00 AM54 °FScattered clouds.9 mph82%29.88 "Hg30 mi
8:00 AM50 °FScattered clouds.7 mph88%29.89 "Hg30 mi
7:00 AM48 °FPassing clouds.7 mph87%29.88 "Hg30 mi
6:00 AM50 °FPassing clouds.10 mph88%29.88 "Hg9 mi
5:00 AM50 °FClear.6 mph88%29.85 "Hg9 mi
4:00 AM54 °FPassing clouds.14 mph88%29.86 "Hg9 mi
3:00 AM54 °FMostly cloudy.7 mph88%29.87 "Hg9 mi
2:02 AM55 °FLight rain. Mostly cloudy.12 mph77%29.86 "Hg9 mi
1:00 AM52 °FMostly cloudy.No wind88%29.85 "Hg9 mi
12:00 AM52 °FPartly cloudy.10 mph88%29.83 "Hg9 mi
11:00 PM
Aug 31
52 °FPassing clouds.3 mph82%29.82 "Hg9 mi
10:00 PM54 °FClear.5 mph82%29.84 "Hg9 mi
9:00 PM57 °FPassing clouds.2 mph72%29.84 "Hg15 mi
8:00 PM59 °FPassing clouds.2 mph68%29.82 "Hg30 mi
7:00 PM64 °FScattered clouds.No wind46%29.80 "Hg30 mi
6:00 PM63 °FBroken clouds.3 mph64%29.81 "Hg30 mi
5:04 PM66 °FSprinkles. Broken clouds.2 mph49%29.79 "Hg30 mi
4:00 PM66 °FSprinkles. Broken clouds.6 mph52%29.78 "Hg30 mi
3:00 PM68 °FPartly sunny.7 mph40%29.78 "Hg30 mi
Weather by CustomWeather, © 2014

See weather overviewHow to use our weather pages